• In Portugal
  • List of Countries
  • For 7 days
  • Water Temperature
  • Satellite Maps
  • Weather Map
  • Weather Widgets
  • user-avatar
    Login

    Hourly Weather Montana

    Today, 25 September, Tuesday

    Time Temperature Precipitation Wind Pressure Humidity
    00:00 +10°C° 0 mm 5 mps 741 mmHg 66%
    01:00 +9°C° 0 mm 5 mps 741 mmHg 68%
    02:00 +8°C° 0 mm 4 mps 741 mmHg 71%
    03:00 +8°C° 0 mm 4 mps 741 mmHg 73%
    04:00 +7°C° 0 mm 4 mps 742 mmHg 75%
    05:00 +7°C° 0 mm 4 mps 742 mmHg 77%
    06:00 +7°C° 0 mm 4 mps 742 mmHg 72%
    07:00 +8°C° 0 mm 4 mps 743 mmHg 67%
    08:00 +10°C° 0 mm 4 mps 743 mmHg 63%
    09:00 +10°C° 0 mm 5 mps 743 mmHg 53%
    10:00 +13°C° 0 mm 5 mps 743 mmHg 44%
    11:00 +15°C° 0 mm 6 mps 743 mmHg 35%
    12:00 +15°C° 0 mm 6 mps 743 mmHg 32%
    13:00 +16°C° 0 mm 6 mps 743 mmHg 30%
    14:00 +16°C° 0 mm 6 mps 742 mmHg 27%
    15:00 +16°C° 0 mm 6 mps 742 mmHg 28%
    16:00 +15°C° 0 mm 6 mps 742 mmHg 29%
    17:00 +15°C° 0 mm 6 mps 742 mmHg 30%
    18:00 +13°C° 0 mm 5 mps 743 mmHg 35%
    19:00 +11°C° 0 mm 4 mps 744 mmHg 40%
    20:00 +9°C° 0 mm 3 mps 745 mmHg 44%
    21:00 +9°C° 0 mm 3 mps 745 mmHg 47%
    22:00 +8°C° 0 mm 2 mps 745 mmHg 50%
    23:00 +7°C° 0 mm 2 mps 746 mmHg 53%

    Tomorrow, 26 September, Wednesday

    Time Temperature Precipitation Wind Pressure Humidity
    00:00 +7°C° 0 mm 2 mps 746 mmHg 55%
    01:00 +6°C° 0 mm 2 mps 746 mmHg 57%
    02:00 +7°C° 0 mm 1 mps 747 mmHg 59%
    03:00 +6°C° 0 mm 1 mps 747 mmHg 60%
    04:00 +6°C° 0 mm 1 mps 747 mmHg 61%
    05:00 +6°C° 0 mm 1 mps 747 mmHg 62%
    06:00 +7°C° 0 mm 1 mps 747 mmHg 58%
    07:00 +8°C° 0 mm 1 mps 747 mmHg 54%
    08:00 +9°C° 0 mm 1 mps 748 mmHg 50%
    09:00 +11°C° 0 mm 1 mps 748 mmHg 45%
    10:00 +13°C° 0 mm 2 mps 747 mmHg 39%
    11:00 +14°C° 0 mm 2 mps 747 mmHg 34%
    12:00 +15°C° 0 mm 2 mps 747 mmHg 32%
    13:00 +16°C° 0 mm 3 mps 746 mmHg 30%
    14:00 +16°C° 0 mm 3 mps 746 mmHg 27%
    15:00 +16°C° 0 mm 3 mps 746 mmHg 28%
    16:00 +14°C° 0 mm 3 mps 746 mmHg 29%
    17:00 +15°C° 0 mm 2 mps 745 mmHg 29%
    18:00 +13°C° 0 mm 2 mps 746 mmHg 34%
    19:00 +10°C° 0 mm 2 mps 746 mmHg 39%
    20:00 +9°C° 0 mm 1 mps 747 mmHg 43%
    21:00 +9°C° 0 mm 1 mps 747 mmHg 44%
    22:00 +9°C° 0 mm 1 mps 747 mmHg 45%
    23:00 +8°C° 0 mm 1 mps 747 mmHg 46%

    Day after tomorrow, 27 September, Thursday

    Time Temperature Precipitation Wind Pressure Humidity
    00:00 +8°C° 0 mm 1 mps 747 mmHg 47%
    01:00 +7°C° 0 mm 1 mps 747 mmHg 48%
    02:00 +7°C° 0 mm 1 mps 747 mmHg 49%
    03:00 +7°C° 0 mm 1 mps 747 mmHg 50%
    04:00 +6°C° 0 mm 1 mps 747 mmHg 51%
    05:00 +6°C° 0 mm 1 mps 746 mmHg 53%
    06:00 +7°C° 0 mm 1 mps 746 mmHg 49%
    07:00 +8°C° 0 mm 1 mps 746 mmHg 46%
    08:00 +10°C° 0 mm 1 mps 746 mmHg 43%
    09:00 +12°C° 0 mm 1 mps 746 mmHg 38%
    10:00 +14°C° 0 mm 2 mps 746 mmHg 34%
    11:00 +15°C° 0 mm 2 mps 745 mmHg 29%
    12:00 +16°C° 0 mm 2 mps 745 mmHg 27%
    13:00 +17°C° 0 mm 3 mps 744 mmHg 26%
    14:00 +18°C° 0 mm 3 mps 743 mmHg 24%
    15:00 +17°C° 0 mm 3 mps 743 mmHg 25%
    16:00 +17°C° 0 mm 2 mps 742 mmHg 25%
    17:00 +17°C° 0 mm 2 mps 742 mmHg 26%
    18:00 +15°C° 0 mm 2 mps 742 mmHg 30%
    19:00 +13°C° 0 mm 2 mps 742 mmHg 35%
    20:00 +11°C° 0 mm 1 mps 742 mmHg 39%
    21:00 +10°C° 0 mm 1 mps 742 mmHg 39%
    22:00 +10°C° 0 mm 1 mps 742 mmHg 40%
    23:00 +9°C° 0 mm 1 mps 742 mmHg 40%

    28 September, Friday

    Time Temperature Precipitation Wind Pressure Humidity
    00:00 +9°C° 0 mm 1 mps 742 mmHg 40%
    01:00 +9°C° 0 mm 1 mps 741 mmHg 41%
    02:00 +9°C° 0 mm 1 mps 741 mmHg 41%
    03:00 +9°C° 0 mm 1 mps 741 mmHg 42%
    04:00 +9°C° 0 mm 1 mps 741 mmHg 42%
    05:00 +9°C° 0 mm 1 mps 740 mmHg 43%
    06:00 +10°C° 0 mm 1 mps 740 mmHg 41%
    07:00 +11°C° 0 mm 1 mps 740 mmHg 40%
    08:00 +12°C° 0 mm 1 mps 740 mmHg 38%
    09:00 +14°C° 0 mm 1 mps 740 mmHg 34%
    10:00 +16°C° 0 mm 2 mps 740 mmHg 30%
    11:00 +18°C° 0 mm 2 mps 740 mmHg 26%
    12:00 +19°C° 0 mm 3 mps 739 mmHg 25%
    13:00 +20°C° 0 mm 3 mps 738 mmHg 24%
    14:00 +21°C° 0 mm 3 mps 738 mmHg 24%
    15:00 +20°C° 0 mm 3 mps 737 mmHg 25%
    16:00 +20°C° 0 mm 3 mps 737 mmHg 27%
    17:00 +20°C° 0 mm 2 mps 736 mmHg 28%
    18:00 +18°C° 0 mm 2 mps 736 mmHg 32%
    19:00 +16°C° 0 mm 1 mps 736 mmHg 36%
    20:00 +13°C° 0 mm 1 mps 736 mmHg 40%
    21:00 +13°C° 0 mm 1 mps 736 mmHg 41%
    22:00 +13°C° 0 mm 1 mps 736 mmHg 42%
    23:00 +12°C° 0 mm 1 mps 736 mmHg 43%

    29 September, Saturday

    Time Temperature Precipitation Wind Pressure Humidity
    00:00 +12°C° 0 mm 1 mps 736 mmHg 44%
    01:00 +12°C° 0 mm 1 mps 736 mmHg 45%
    02:00 +12°C° 0 mm 1 mps 736 mmHg 46%
    03:00 +11°C° 0 mm 1 mps 735 mmHg 47%
    04:00 +11°C° 0 mm 1 mps 735 mmHg 49%
    05:00 +11°C° 0 mm 1 mps 735 mmHg 50%
    06:00 +12°C° 0 mm 1 mps 735 mmHg 48%
    07:00 +13°C° 0 mm 1 mps 735 mmHg 45%
    08:00 +14°C° 0 mm 1 mps 735 mmHg 43%
    09:00 +16°C° 0 mm 1 mps 735 mmHg 39%
    10:00 +19°C° 0 mm 1 mps 735 mmHg 35%
    11:00 +21°C° 0 mm 1 mps 735 mmHg 30%
    12:00 +22°C° 0 mm 1 mps 735 mmHg 29%
    13:00 +23°C° 0 mm 2 mps 735 mmHg 29%
    14:00 +24°C° 0 mm 2 mps 734 mmHg 28%
    15:00 +23°C° 0 mm 2 mps 734 mmHg 29%
    16:00 +23°C° 0 mm 2 mps 734 mmHg 30%
    17:00 +23°C° 0 mm 2 mps 735 mmHg 32%
    18:00 +21°C° 0 mm 1 mps 735 mmHg 36%
    19:00 +19°C° 0 mm 1 mps 735 mmHg 40%
    20:00 +16°C° 0 mm 1 mps 736 mmHg 44%
    21:00 +15°C° 0 mm 1 mps 736 mmHg 45%
    22:00 +15°C° 0 mm 1 mps 736 mmHg 47%
    23:00 +14°C° 0 mm 1 mps 736 mmHg 48%

    30 September, Sunday

    Time Temperature Precipitation Wind Pressure Humidity
    00:00 +14°C° 0 mm 1 mps 737 mmHg 50%
    01:00 +13°C° 0 mm 1 mps 737 mmHg 51%
    02:00 +13°C° 0 mm 1 mps 737 mmHg 53%
    03:00 +13°C° 0 mm 1 mps 737 mmHg 56%
    04:00 +12°C° 0 mm 1 mps 738 mmHg 59%
    05:00 +12°C° 0 mm 1 mps 738 mmHg 61%
    06:00 +13°C° 0 mm 1 mps 738 mmHg 59%
    07:00 +14°C° 0 mm 1 mps 739 mmHg 58%
    08:00 +15°C° 0 mm 1 mps 739 mmHg 56%
    09:00 +18°C° 0 mm 1 mps 739 mmHg 51%
    10:00 +18°C° 0 mm 2 mps 739 mmHg 46%
    11:00 +20°C° 0 mm 2 mps 739 mmHg 41%
    12:00 +21°C° 0 mm 2 mps 739 mmHg 40%
    13:00 +22°C° 0 mm 3 mps 738 mmHg 39%
    14:00 +24°C° 0 mm 3 mps 738 mmHg 38%
    15:00 +22°C° 0 mm 3 mps 738 mmHg 41%
    16:00 +22°C° 0 mm 3 mps 738 mmHg 43%
    17:00 +21°C° 0 mm 3 mps 738 mmHg 46%
    18:00 +19°C° 0 mm 2 mps 738 mmHg 53%
    19:00 +18°C° 0 mm 2 mps 738 mmHg 61%
    20:00 +16°C° 0 mm 2 mps 738 mmHg 68%
    21:00 +15°C° 0 mm 1 mps 738 mmHg 71%
    22:00 +14°C° 0 mm 1 mps 738 mmHg 73%
    23:00 +14°C° 0 mm 1 mps 738 mmHg 75%
    Show more